1505098800.9,60858,14.69,73532.0,4.89,3.81,3.81,0,*7B
1505098802.11,60859,14.69,73536.5,4.91,3.89,3.89,0,*73
1505098803.28,60860,14.69,73538.0,4.89,3.93,3.85,0,*77
1505098804.46,60861,14.63,73536.0,4.89,3.93,3.81,0,*72
1505098805.68,60862,14.69,73546.3,4.89,4.01,3.97,0,*7A
1505098806.9,60863,14.63,73536.3,4.89,3.97,3.97,0,*73
1505098808.13,60864,14.63,73536.8,4.89,4.05,3.97,0,*78
1505098809.37,60865,14.69,73542.8,4.91,4.01,3.97,0,*74
1505098810.55,60866,14.69,73544.0,4.89,3.93,3.93,0,*76
1505098811.78,60867,14.63,73546.0,4.89,4.05,3.97,0,*7B
1505098813.0,60868,14.63,73550.0,4.91,4.07,4.01,0,*77
1505098814.23,60869,14.69,73552.0,4.91,4.07,4.01,0,*76
1505098815.45,60870,14.69,73550.5,4.91,4.07,4.01,0,*7E
1505098816.71,60871,14.69,73550.8,4.91,3.75,3.75,0,*79
1505098817.96,60872,14.63,73540.8,4.91,3.75,3.79,0,*76
1505098819.13,60873,14.63,73542.5,4.89,3.85,3.85,0,*72
1505098820.38,60874,14.63,73536.5,4.91,3.97,3.97,0,*7C
1505098821.56,60875,14.63,73542.3,4.89,4.07,4.07,0,*74
1505098822.78,60876,14.63,73538.0,4.89,3.97,3.97,0,*77
1505098824.02,60877,14.63,73540.3,4.91,4.01,4.01,0,*7F
1505098825.2,60878,14.63,73542.3,4.89,4.07,4.07,0,*79
1505098826.41,60879,14.63,73542.3,4.91,4.07,4.07,0,*71
1505098827.61,60880,14.69,73542.8,4.91,4.07,4.11,0,*70
1505098828.83,60881,14.63,73540.5,4.91,4.07,4.01,0,*70
1505098830.04,60882,14.69,73544.8,4.91,4.07,4.07,0,*75
1505098831.26,60883,14.63,73546.8,4.91,4.07,4.01,0,*72
1505098832.47,60884,14.69,73548.5,4.91,4.07,4.07,0,*73
1505098833.69,60885,14.63,73548.3,4.91,3.97,4.07,0,*7C
1505098834.9,60886,14.69,73552.5,4.91,4.07,4.07,0,*71
1505098836.07,60887,14.63,73540.0,4.89,3.85,3.93,0,*7E
1505098837.32,60888,14.63,73528.5,4.91,4.01,4.01,0,*7F
1505098838.53,60889,14.69,73520.0,4.91,3.89,3.89,0,*7E
1505098839.73,60890,14.63,73520.5,4.91,3.89,3.85,0,*7A
1505098840.92,60891,14.63,73534.8,4.91,3.85,3.85,0,*77
1505098842.15,60892,14.63,73536.3,4.91,3.79,3.63,0,*7F
1505098843.38,60893,14.69,73534.8,4.89,3.75,3.75,0,*7C
1505098844.6,60894,14.63,73542.8,4.91,3.97,3.89,0,*7D
1505098845.81,60895,14.63,73534.3,4.91,3.89,3.89,0,*73
1505098847.01,60896,14.69,73530.8,4.89,3.81,3.75,0,*72
1505098848.27,60897,14.63,73538.8,4.91,3.75,3.67,0,*72
1505098849.43,60898,14.63,73530.5,4.89,3.63,3.63,0,*77
1505098850.65,60899,14.69,73534.3,4.89,3.53,3.53,0,*76
1505098851.82,60900,14.63,73528.3,4.89,3.59,3.59,0,*77
1505098853.02,60901,14.69,73520.5,4.87,3.55,3.55,0,*78
1505098854.18,60902,14.63,73500.8,4.89,3.59,3.59,0,*75
1505098855.41,60903,14.63,73540.0,4.89,3.75,3.75,0,*74
1505098856.61,60904,14.63,73528.5,4.89,3.81,3.75,0,*78
1505098857.82,60905,14.63,73532.0,4.87,3.89,3.81,0,*74
1505098859.0,60906,14.63,73524.0,4.89,3.85,3.93,0,*76
1505098860.2,60907,14.63,73538.8,4.89,3.93,3.97,0,*74
1505098861.4,60908,14.63,73534.3,4.89,3.93,3.97,0,*7B
1505098862.6,60909,14.69,73530.3,4.89,3.93,3.97,0,*7A
1505098863.84,60910,14.63,73534.8,4.91,4.01,4.01,0,*7F
1505098865.04,60911,14.63,73544.0,4.91,4.07,4.11,0,*79
1505098866.3,60912,14.63,73536.5,4.87,4.05,4.05,0,*7A
1505098867.52,60913,14.63,73528.0,4.89,3.97,3.97,0,*75
1505098868.7,60914,14.63,73528.3,4.89,3.93,3.93,0,*72
1505098869.92,60915,14.63,73522.3,4.89,3.97,3.97,0,*73
1505098871.14,60916,14.63,73540.5,4.89,3.97,3.97,0,*70
1505098872.34,60917,14.63,73540.3,4.91,4.11,4.11,0,*78
1505098873.54,60918,14.63,73530.8,4.89,4.07,3.97,0,*70
1505098874.76,60919,14.69,73534.8,4.91,3.89,3.97,0,*79
1505098875.96,60920,14.63,73538.3,4.89,4.01,3.93,0,*79
1505098877.18,60921,14.63,73538.0,4.89,3.97,3.97,0,*74
1505098878.35,60922,14.63,73522.3,4.89,3.85,3.85,0,*77
1505098879.58,60923,14.63,73518.0,4.91,3.89,4.01,0,*78
1505098880.79,60924,14.63,73528.8,4.89,3.97,3.97,0,*71
1505098882.04,60925,14.63,73522.5,4.91,3.97,4.01,0,*71
1505098883.26,60926,14.63,73536.3,4.91,4.01,4.07,0,*7C
1505098884.51,60927,14.69,73532.3,4.91,3.97,4.01,0,*73
1505098885.71,60928,14.63,73520.8,4.89,3.71,3.63,0,*7E
1505098886.88,60929,14.63,73530.3,4.89,3.63,3.63,0,*7C
1505098888.11,60930,14.63,73532.3,4.89,3.75,3.75,0,*74
1505098889.28,60931,14.63,73538.8,4.89,3.85,3.81,0,*71
1505098890.46,60932,14.69,73544.3,4.89,3.93,3.93,0,*76
1505098891.66,60933,14.63,73538.3,4.89,3.97,3.93,0,*73
1505098892.91,60934,14.63,73530.0,4.91,4.01,4.01,0,*79
1505098894.1,60935,14.63,73532.3,4.91,3.85,3.85,0,*78
1505098895.35,60936,14.63,73534.3,4.91,3.97,3.97,0,*7B
1505098896.52,60937,14.63,73532.5,4.89,3.93,3.85,0,*74
1505098897.7,60938,14.69,73532.8,4.89,3.85,3.81,0,*78
1505098898.87,60939,14.63,73538.0,4.89,3.81,3.85,0,*79
1505098900.04,60940,14.63,73534.5,4.89,3.85,3.93,0,*74
1505098901.21,60941,14.69,73530.3,4.89,3.85,3.85,0,*72
1505098902.38,60942,14.63,73522.5,4.89,3.85,3.85,0,*71
1505098903.58,60943,14.63,73528.5,4.89,3.97,3.93,0,*74
1505098904.8,60944,14.63,73530.5,4.91,3.97,3.89,0,*71
1505098905.98,60945,14.63,73526.0,4.89,3.85,3.81,0,*72
1505098907.16,60946,14.63,73530.8,4.89,3.93,3.93,0,*75
1505098908.39,60947,14.63,73530.0,4.89,4.05,4.05,0,*74
1505098909.61,60948,14.69,73530.3,4.91,4.07,4.01,0,*74
1505098910.84,60949,14.69,73538.3,4.91,4.01,4.07,0,*75
1505098912.07,60950,14.63,73534.8,4.89,4.05,4.05,0,*72
1505098913.29,60951,14.63,73542.5,4.91,4.07,4.01,0,*7C
1505098914.51,60952,14.69,73542.0,4.89,3.97,3.97,0,*70
1505098915.74,60953,14.69,73542.3,4.91,3.89,3.97,0,*77
1505098916.91,60954,14.63,73538.5,4.89,3.85,3.85,0,*76
1505098918.11,60955,14.63,73538.0,4.91,3.89,3.89,0,*7E
1505098919.34,60956,14.63,73534.5,4.91,3.89,3.97,0,*72
1505098920.54,60957,14.69,73532.8,4.89,3.97,3.93,0,*71
1505098921.75,60958,14.63,73534.0,4.91,4.07,4.07,0,*73
1505098922.96,60959,14.69,73540.5,4.89,3.97,3.97,0,*7B
1505098924.19,60960,14.63,73542.5,4.89,4.05,4.05,0,*71
1505098925.39,60961,14.69,73536.5,4.91,3.89,3.85,0,*75
1505098926.62,60962,14.63,73536.5,4.89,3.75,3.71,0,*77
1505098927.82,60963,14.69,73544.5,4.89,3.97,3.93,0,*76
1505098929.03,60964,14.69,73550.3,4.91,3.89,3.89,0,*7C
1505098930.2,60965,14.69,73546.5,4.89,3.93,3.85,0,*73
1505098931.38,60966,14.63,73538.5,4.89,3.85,3.81,0,*73
1505098932.55,60967,14.69,73548.5,4.89,3.85,3.85,0,*76
1505098933.75,60968,14.69,73546.0,4.91,3.89,3.85,0,*7C
1505098934.96,60969,14.63,73542.5,4.93,3.89,3.89,0,*73
1505098936.14,60970,14.63,73542.0,4.89,3.85,3.81,0,*74
1505098937.34,60971,14.63,73542.8,4.91,3.89,3.89,0,*78
1505098938.59,60972,14.63,73540.3,4.91,4.01,4.01,0,*7B
1505098939.83,60973,14.69,73540.5,4.91,4.01,3.97,0,*72
1505098941.08,60974,14.69,73540.0,4.91,3.97,3.97,0,*7D
1505098942.3,60975,14.63,73542.5,4.91,3.85,3.79,0,*7F
1505098943.51,60976,14.63,73538.5,4.91,3.89,3.89,0,*7F
1505098944.69,60977,14.69,73542.0,4.89,3.81,3.81,0,*77
1505098945.86,60978,14.63,73542.0,4.89,3.85,3.81,0,*7C
1505098947.06,60979,14.63,73542.8,4.91,3.89,3.85,0,*7C
1505098948.24,60980,14.63,73540.3,4.89,3.93,3.93,0,*7F
1505098949.41,60981,14.63,73542.0,4.89,3.85,3.85,0,*7E
1505098950.58,60982,14.63,73540.3,4.89,3.85,3.85,0,*7D
1505098951.78,60983,14.63,73540.3,4.89,3.97,3.93,0,*78
1505098952.96,60984,14.63,73544.0,4.89,3.93,3.93,0,*7B
1505098954.19,60985,14.63,73542.3,4.89,4.05,4.05,0,*7A
1505098955.39,60986,14.63,73544.0,4.89,4.07,4.05,0,*7B
1505098956.57,60987,14.63,73540.0,4.89,4.07,4.07,0,*78
1505098957.79,60988,14.63,73540.3,4.89,3.97,3.97,0,*77
1505098958.99,60989,14.69,73542.8,4.89,3.93,3.97,0,*72
1505098960.23,60990,14.63,73546.3,4.91,4.01,3.97,0,*7F
1505098961.48,60991,14.63,73538.8,4.91,3.97,3.97,0,*76
1505098962.67,60992,14.69,73548.3,4.91,3.85,3.85,0,*75
1505098963.87,60993,14.63,73536.5,4.91,3.89,3.85,0,*78
1505098965.1,60994,14.63,73532.3,4.89,3.75,3.75,0,*7A
1505098966.3,60995,14.63,73530.8,4.89,3.97,3.93,0,*7F
1505098967.48,60996,14.63,73542.0,4.89,3.93,3.93,0,*78
1505098968.74,60997,14.69,73524.3,4.91,3.75,3.79,0,*7C
1505098969.96,60998,14.63,73510.8,4.89,3.71,3.71,0,*76
1505098971.16,60999,14.69,73516.3,4.91,3.55,3.55,0,*7E
1505098972.41,61000,14.69,73512.3,4.91,3.75,3.75,0,*76
1505098973.59,61001,14.63,73508.8,4.89,3.81,3.81,0,*7E
1505098974.76,61002,14.63,73518.8,4.89,3.85,3.93,0,*7A
1505098975.99,61003,14.69,73528.0,4.91,3.89,3.79,0,*7A
1505098977.17,61004,14.69,73530.3,4.89,3.81,3.81,0,*7B
1505098978.37,61005,14.63,73536.5,4.89,3.97,3.93,0,*7E
1505098979.54,61006,14.63,73532.3,4.89,3.85,3.85,0,*79
1505098980.72,61007,14.63,73514.5,4.89,3.93,3.93,0,*78
1505098981.95,61008,14.63,73506.5,4.89,3.75,3.75,0,*77
1505098983.14,61009,14.69,73538.8,4.89,3.97,3.93,0,*72
1505098984.32,61010,14.63,73536.5,4.89,3.93,3.85,0,*79
1505098985.5,61011,14.69,73536.3,4.89,3.93,3.93,0,*7F
1505098986.67,61012,14.69,73538.0,4.89,3.93,3.85,0,*7B
1505098987.85,61013,14.63,73538.5,4.89,3.85,3.81,0,*79
1505098989.06,61014,14.63,73522.0,4.87,3.89,3.89,0,*74
1505098990.27,61015,14.69,73532.5,4.87,3.89,3.89,0,*75
1505098991.49,61016,14.63,73540.5,4.89,3.97,4.05,0,*74
1505098992.67,61017,14.69,73542.0,4.89,4.07,4.07,0,*79
1505098993.85,61018,14.69,73544.8,4.89,3.93,3.93,0,*76
1505098995.02,61019,14.69,73536.3,4.89,3.85,3.85,0,*77
1505098996.25,61020,14.69,73540.8,4.89,3.75,3.75,0,*7D
1505098997.48,61021,14.63,73530.0,4.89,3.75,3.71,0,*78
1505098998.71,61022,14.69,73536.8,4.89,3.75,3.75,0,*7F
1505098999.91,61023,14.63,73538.8,4.91,3.85,3.89,0,*7B
1505099001.08,61024,14.69,73534.8,4.89,3.81,3.85,0,*7D
1505099002.34,61025,14.69,73534.3,4.87,3.67,3.67,0,*76
1505099003.59,61026,14.69,73544.3,4.87,3.79,3.79,0,*75
1505099004.82,61027,14.63,73546.3,4.87,4.01,3.93,0,*78
1505099006.03,61028,14.63,73546.0,4.87,3.93,3.81,0,*78
1505099007.28,61029,14.63,73540.0,4.87,3.79,3.79,0,*7A
1505099008.54,61030,14.63,73540.5,4.87,3.79,3.71,0,*7A
1505099009.75,61031,14.69,73538.0,4.87,3.81,3.81,0,*73
1505099011.0,61032,14.69,73538.0,4.87,3.79,3.79,0,*70
1505099012.25,61033,14.63,73538.3,4.87,3.79,3.79,0,*71
1505099013.46,61034,14.63,73546.0,4.87,3.81,3.89,0,*7E
1505099014.67,61035,14.69,73544.0,4.87,3.89,3.89,0,*77
1505099015.88,61036,14.69,73538.5,4.87,3.89,3.89,0,*74
1505099017.06,61037,14.63,73544.0,4.85,3.93,3.89,0,*7C
1505099018.27,61038,14.63,73544.3,4.87,3.93,3.89,0,*71
1505099019.52,61039,14.69,73538.0,4.91,4.01,3.97,0,*74
1505099020.77,61040,14.63,73546.3,4.87,4.01,4.01,0,*75
1505099021.98,61041,14.63,73540.3,4.87,3.93,3.89,0,*7F
1505099023.19,61042,14.63,73548.3,4.87,3.89,3.81,0,*7F
1505099024.39,61043,14.69,73550.3,4.87,3.81,3.89,0,*7E
1505099025.6,61044,14.63,73546.8,4.87,3.81,3.81,0,*71
1505099026.85,61045,14.63,73548.8,4.87,3.79,3.79,0,*70
1505099028.03,61046,14.63,73550.8,4.89,3.93,3.93,0,*7D
1505099029.25,61047,14.63,73556.8,4.89,3.97,3.97,0,*7C
1505099030.48,61048,14.63,73546.3,4.87,4.01,3.93,0,*71
1505099031.69,61049,14.69,73544.8,4.87,3.81,3.81,0,*7C
1505099032.92,61050,14.63,73550.8,4.87,3.79,3.81,0,*73
1505099034.13,61051,14.69,73548.0,4.87,3.89,3.81,0,*7D
1505099035.36,61052,14.63,73538.8,4.87,3.93,4.01,0,*7A
1505099036.53,61053,14.69,73536.8,4.89,3.93,3.85,0,*7E
1505099037.7,61054,14.63,73540.8,4.89,3.85,3.85,0,*7E
1505099038.88,61055,14.69,73538.3,4.89,3.85,3.81,0,*7B
1505099040.08,61056,14.63,73536.3,4.89,3.81,3.71,0,*73
1505099041.3,61057,14.69,73532.8,4.91,3.85,3.79,0,*77
1505099042.52,61058,14.63,73534.3,4.89,3.97,3.97,0,*72
1505099043.7,61059,14.69,73536.5,4.89,3.93,3.93,0,*73
1505099044.92,61060,14.63,73528.0,4.89,3.71,3.71,0,*79
1505099046.15,61061,14.63,73528.5,4.89,3.75,3.71,0,*7C
1505099047.35,61062,14.69,73536.5,4.89,3.81,3.75,0,*70
1505099048.56,61063,14.63,73534.8,4.87,3.89,3.93,0,*7F
1505099049.79,61064,14.63,73538.8,4.89,3.97,4.05,0,*71
1505099050.96,61065,14.69,73538.3,4.89,3.85,3.81,0,*78
1505099052.19,61066,14.69,73536.5,4.89,3.75,3.71,0,*7B
1505099053.45,61067,14.63,73530.5,4.87,3.71,3.71,0,*70
1505099054.7,61068,14.69,73538.5,4.87,3.67,3.67,0,*7F
1505099055.96,61069,14.63,73524.8,4.87,3.79,3.67,0,*71
1505099057.22,61070,14.63,73532.5,4.87,3.79,3.71,0,*7E
1505099058.42,61071,14.69,73538.8,4.87,3.89,3.81,0,*7F
1505099059.65,61072,14.69,73542.5,4.87,3.89,3.79,0,*7B
1505099060.86,61073,14.69,73542.3,4.87,3.89,3.81,0,*7D
1505099062.12,61074,14.69,73536.3,4.87,3.71,3.71,0,*72
1505099063.38,61075,14.63,73534.8,4.87,3.79,3.71,0,*7B
1505099064.63,61076,14.63,73546.8,4.87,3.79,3.71,0,*78
1505099065.86,61077,14.63,73534.3,4.87,3.59,3.67,0,*7C
1505099067.06,61078,14.69,73542.8,4.89,3.63,3.71,0,*73
1505099068.26,61079,14.69,73540.3,4.87,3.59,3.59,0,*7F
1505099069.51,61080,14.63,73536.3,4.87,3.67,3.79,0,*76
1505099070.75,61081,14.63,73542.3,4.87,3.67,3.59,0,*75
1505099071.98,61082,14.69,73532.5,4.87,3.67,3.59,0,*76
1505099073.23,61083,14.63,73522.5,4.87,3.71,3.71,0,*7A
1505099074.46,61084,14.69,73532.0,4.87,3.81,3.79,0,*7A
1505099075.67,61085,14.63,73538.5,4.87,3.81,3.81,0,*7C
1505099076.88,61086,14.63,73540.3,4.87,3.93,3.89,0,*74
1505099078.08,61087,14.69,73542.5,4.87,3.81,3.81,0,*7E
1505099079.32,61088,14.69,73536.0,4.87,3.79,3.81,0,*76
1505099080.57,61089,14.69,73546.3,4.87,3.71,3.79,0,*78
1505099081.83,61090,14.63,73546.8,4.87,3.67,3.71,0,*7F
1505099083.06,61091,14.69,73544.8,4.87,3.67,3.59,0,*74
1505099084.23,61092,14.69,73548.3,4.85,3.59,3.59,0,*78
1505099085.48,61093,14.63,73528.8,4.87,3.49,3.49,0,*7B
1505099086.74,61094,14.63,73540.5,4.87,3.67,3.67,0,*7C
1505099087.97,61095,14.69,73542.0,4.87,3.59,3.71,0,*77
1505099089.23,61096,14.69,73542.5,4.87,3.79,3.71,0,*76
1505099090.44,61097,14.63,73542.5,4.87,3.89,3.81,0,*77
1505099091.64,61098,14.69,73538.5,4.85,3.81,3.79,0,*75
1505099092.86,61099,14.63,73536.8,4.87,3.81,3.79,0,*76
1505099094.09,61100,14.69,73536.3,4.87,3.59,3.67,0,*7D
1505099095.32,61101,14.63,73530.5,4.85,3.67,3.71,0,*74
1505099096.55,61102,14.69,73532.3,4.85,3.79,3.71,0,*78
1505099097.73,61103,14.69,73536.3,4.85,3.89,3.81,0,*79
1505099098.94,61104,14.69,73538.0,4.87,3.89,3.81,0,*7C
1505099100.15,61105,14.63,73542.8,4.87,3.89,3.93,0,*7E
1505099101.41,61106,14.69,73544.0,4.87,4.05,4.01,0,*72
1505099102.66,61107,14.69,73552.8,4.87,4.05,4.01,0,*73
1505099103.87,61108,14.69,73552.5,4.87,3.93,3.89,0,*73
1505099105.08,61109,14.63,73548.3,4.87,3.81,3.81,0,*79
1505099106.29,61110,14.63,73550.5,4.87,3.89,3.89,0,*71
1505099107.51,61111,14.69,73548.3,4.85,4.01,4.01,0,*72
1505099108.72,61112,14.69,73544.0,4.87,3.89,3.81,0,*7B
1505099109.93,61113,14.69,73538.8,4.87,3.89,3.89,0,*72
1505099111.14,61114,14.63,73530.5,4.87,3.93,3.93,0,*75
1505099112.35,61115,14.69,73528.3,4.87,3.89,3.81,0,*7C
1505099113.56,61116,14.69,73528.0,4.87,3.93,3.89,0,*7C
1505099114.81,61117,14.69,73524.5,4.87,3.71,3.71,0,*76
1505099116.02,61118,14.69,73526.5,4.87,3.89,3.89,0,*79
1505099117.23,61119,14.63,73530.3,4.87,3.81,3.89,0,*70
1505099118.46,61120,14.69,73528.3,4.87,3.93,4.01,0,*7E
1505099119.66,61121,14.69,73530.0,4.87,4.11,4.11,0,*73
1505099120.87,61122,14.63,73520.3,4.87,3.93,3.93,0,*70
1505099122.08,61123,14.69,73532.8,4.87,3.89,3.81,0,*79
1505099123.29,61124,14.69,73546.3,4.87,3.93,3.93,0,*76
1505099124.52,61125,14.63,73536.5,4.85,4.05,4.01,0,*71
1505099125.73,61126,14.69,73538.5,4.87,3.89,3.93,0,*7F
1505099126.98,61127,14.69,73536.0,4.87,4.01,4.05,0,*71
1505099128.19,61128,14.69,73536.5,4.87,3.93,3.93,0,*7A
1505099129.4,61129,14.69,73534.0,4.87,3.89,3.89,0,*7B
1505099130.6,61130,14.63,73538.5,4.87,3.81,3.81,0,*73
1505099131.85,61131,14.63,73540.3,4.87,3.33,3.37,0,*76
1505099133.11,61132,14.63,73522.3,4.87,3.45,3.49,0,*7D
1505099134.34,61133,14.63,73526.5,4.85,3.67,3.67,0,*72
1505099135.6,61134,14.63,73532.3,4.87,3.67,3.71,0,*70
1505099136.81,61135,14.63,73542.5,4.85,3.79,3.81,0,*73
1505099138.01,61136,14.69,73534.8,4.85,3.79,3.81,0,*70
1505099139.21,61137,14.69,73544.3,4.85,3.81,3.79,0,*71
1505099140.47,61138,14.63,73540.3,4.87,3.79,3.79,0,*7B
1505099141.65,61139,14.69,73532.0,4.85,3.81,3.89,0,*70
1505099142.85,61140,14.63,73544.3,4.87,3.81,3.81,0,*74
1505099144.08,61141,14.63,73548.0,4.87,4.01,3.93,0,*79
1505099145.28,61142,14.63,73528.8,4.85,4.01,3.93,0,*78
1505099146.49,61143,14.69,73542.5,4.87,3.81,3.89,0,*7F
1505099147.72,61144,14.63,73530.3,4.87,4.01,3.93,0,*7C
1505099148.93,61145,14.69,73546.3,4.87,3.93,3.93,0,*71
1505099150.19,61146,14.69,73556.8,4.87,4.05,4.05,0,*72
1505099151.4,61147,14.69,73532.8,4.87,3.93,3.93,0,*73
1505099152.61,61148,14.63,73522.3,4.87,3.89,3.89,0,*7C
1505099153.86,61149,14.69,73550.0,4.87,4.05,4.01,0,*79
1505099155.09,61150,14.63,73554.8,4.87,4.01,3.93,0,*79
1505099156.32,61151,14.63,73538.8,4.89,4.05,4.05,0,*7A
1505099157.57,61152,14.69,73524.5,4.91,4.01,4.01,0,*70
1505099158.78,61153,14.69,73536.3,4.87,3.93,3.89,0,*7D
1505099160.0,61154,14.69,73536.0,4.87,4.01,3.93,0,*7D
1505099161.26,61155,14.69,73538.5,4.87,4.01,4.05,0,*74
1505099162.48,61156,14.63,73532.8,4.89,3.97,3.97,0,*7D
1505099163.7,61157,14.69,73522.5,4.91,4.07,4.01,0,*73
1505099164.93,61158,14.69,73518.3,4.89,4.05,4.05,0,*73
1505099166.16,61159,14.69,73508.8,4.89,4.05,4.05,0,*72
1505099167.39,61160,14.63,73510.5,4.89,4.05,4.05,0,*78
1505099168.59,61161,14.69,73506.3,4.89,4.07,4.05,0,*7B
1505099169.82,61162,14.69,73520.8,4.89,4.05,4.05,0,*7A
1505099171.04,61163,14.69,73524.5,4.91,4.01,4.07,0,*74
1505099172.29,61164,14.63,73530.0,4.91,4.01,4.01,0,*75
1505099173.49,61165,14.69,73530.3,4.89,4.15,4.05,0,*7C
1505099174.68,61166,14.63,73526.3,4.89,4.01,4.11,0,*7F
1505099175.88,61167,14.69,73528.0,4.91,4.11,4.11,0,*76
1505099177.06,61168,14.69,73536.0,4.89,4.07,4.07,0,*70
1505099178.24,61169,14.69,73538.5,4.89,4.15,4.07,0,*72
1505099179.43,61170,14.63,73516.3,4.91,4.19,4.19,0,*70
1505099180.68,61171,14.63,73518.3,4.91,4.01,4.01,0,*71
1505099181.86,61172,14.69,73526.3,4.89,3.93,3.93,0,*7B
1505099183.06,61173,14.63,73532.0,4.91,4.07,4.07,0,*73
1505099184.27,61174,14.63,73536.8,4.91,4.11,4.07,0,*73
1505099185.46,61175,14.63,73536.0,4.91,4.19,4.19,0,*75
1505099186.69,61176,14.69,73532.5,4.91,4.01,4.07,0,*70
1505099187.86,61177,14.69,73534.0,4.89,3.85,3.85,0,*7E
1505099189.08,61178,14.63,73530.0,4.91,4.07,4.01,0,*7E
1505099190.29,61179,14.69,73532.8,4.91,4.07,4.07,0,*79
1505099191.49,61180,14.69,73534.5,4.89,4.05,4.15,0,*77
1505099192.68,61181,14.69,73532.8,4.91,4.19,4.19,0,*7E
1505099193.88,61182,14.69,73536.3,4.91,4.11,4.11,0,*7D
1505099195.08,61183,14.69,73536.5,4.91,4.19,4.19,0,*7C
1505099196.27,61184,14.63,73540.0,4.91,4.19,4.19,0,*7B
1505099197.47,61185,14.69,73540.3,4.91,4.11,4.11,0,*7A
1505099198.67,61186,14.69,73540.8,4.89,4.07,3.97,0,*7E
1505099199.89,61187,14.69,73538.3,4.91,4.01,4.07,0,*7E
1505099201.1,61188,14.69,73536.3,4.91,4.07,4.07,0,*77
1505099202.3,61189,14.69,73538.3,4.91,4.11,4.07,0,*71
1505099203.5,61190,14.63,73532.5,4.91,4.19,4.11,0,*76
1505099204.7,61191,14.63,73534.8,4.91,4.11,4.11,0,*7F
1505099205.89,61192,14.69,73532.0,4.91,4.19,4.19,0,*7C
1505099207.09,61193,14.69,73526.3,4.91,4.11,4.11,0,*7D
1505099208.32,61194,14.69,73526.3,4.91,4.07,4.01,0,*7C
1505099209.52,61195,14.69,73526.8,4.91,4.07,4.07,0,*7B
1505099210.73,61196,14.69,73530.3,4.93,4.07,4.11,0,*7D
1505099211.94,61197,14.69,73528.5,4.93,4.11,4.07,0,*7C
1505099213.19,61198,14.69,73526.8,4.93,4.01,4.01,0,*74
1505099214.45,61199,14.69,73520.5,4.93,3.97,3.97,0,*75
1505099215.68,61200,14.69,73528.5,4.93,4.01,4.07,0,*70
1505099216.91,61201,14.63,73528.5,4.93,4.07,4.01,0,*71
1505099218.16,61202,14.69,73532.5,4.91,3.97,3.97,0,*76
1505099219.38,61203,14.69,73542.5,4.91,3.97,3.85,0,*74
1505099220.6,61204,14.69,73544.3,4.91,3.79,3.85,0,*73
1505099221.84,61205,14.69,73546.5,4.93,3.97,3.89,0,*7C
1505099223.07,61206,14.69,73548.0,4.93,3.97,3.89,0,*7F
1505099224.32,61207,14.69,73540.5,4.91,3.97,3.97,0,*73
1505099225.54,61208,14.69,73542.8,4.91,3.97,3.89,0,*73
1505099226.77,61209,14.69,73542.0,4.93,3.97,3.85,0,*7C
1505099228.03,61210,14.69,73546.5,4.93,3.97,3.97,0,*77
1505099229.26,61211,14.69,73544.5,4.93,4.01,3.89,0,*71
1505099230.52,61212,14.69,73546.0,4.93,3.79,3.75,0,*79
1505099231.76,61213,14.63,73544.3,4.93,3.85,3.75,0,*7B
1505099232.99,61214,14.69,73542.8,4.93,3.85,3.79,0,*70
1505099234.21,61215,14.69,73546.8,4.91,3.97,3.89,0,*7F
1505099235.46,61216,14.69,73538.8,4.91,4.01,4.01,0,*73
1505099236.66,61217,14.69,73538.5,4.91,3.89,3.85,0,*7E
1505099237.91,61218,14.69,73536.3,4.91,3.79,3.75,0,*71
1505099239.09,61219,14.69,73542.3,4.89,3.93,3.93,0,*75
1505099240.34,61220,14.63,73532.3,4.91,3.97,3.97,0,*76
1505099241.52,61221,14.69,73534.8,4.89,3.93,3.93,0,*7E
1505099242.72,61222,14.69,73532.5,4.91,3.89,3.89,0,*74
1505099243.93,61223,14.69,73534.3,4.91,3.85,3.89,0,*79
1505099245.1,61224,14.69,73526.0,4.89,3.63,3.59,0,*72
1505099246.32,61225,14.69,73534.5,4.89,3.75,3.71,0,*7E
1505099247.52,61226,14.69,73534.5,4.89,3.63,3.71,0,*7A
1505099248.69,61227,14.63,73522.3,4.89,3.63,3.55,0,*7D
1505099249.86,61228,14.69,73526.8,4.89,3.85,3.85,0,*77
1505099251.04,61229,14.69,73530.5,4.89,3.81,3.81,0,*76
1505099252.24,61230,14.69,73524.0,4.89,3.75,3.81,0,*75
1505099253.42,61231,14.69,73518.3,4.89,3.93,3.93,0,*7F
1505099254.6,61232,14.69,73534.5,4.89,3.81,3.81,0,*7C
1505099255.78,61233,14.69,73536.0,4.89,3.93,3.93,0,*7D
1505099256.95,61234,14.69,73540.0,4.89,3.85,3.81,0,*7E
1505099258.18,61235,14.69,73546.5,4.91,3.89,3.97,0,*7D
1505099259.36,61236,14.69,73522.8,4.89,3.93,3.93,0,*78
1505099260.53,61237,14.63,73524.8,4.89,3.85,3.85,0,*79
1505099261.7,61238,14.69,73522.8,4.89,3.85,3.93,0,*71
1505099262.88,61239,14.69,73528.0,4.89,3.93,3.93,0,*77
1505099264.11,61240,14.69,73538.3,4.89,4.05,4.05,0,*79
1505099265.32,61241,14.69,73546.0,4.89,4.05,4.07,0,*7A
1505099266.52,61242,14.69,73528.8,4.89,3.97,3.93,0,*7F
1505099267.69,61243,14.69,73532.5,4.89,3.93,3.85,0,*7D
1505099268.86,61244,14.69,73536.0,4.89,3.85,3.85,0,*7D
1505099270.08,61245,14.69,73538.8,4.91,3.97,3.89,0,*7A
1505099271.29,61246,14.69,73534.0,4.91,3.89,3.89,0,*76
1505099272.52,61247,14.69,73534.3,4.89,3.75,3.75,0,*7E
1505099273.75,61248,14.69,73546.3,4.91,3.89,3.97,0,*77
1505099274.95,61249,14.69,73550.5,4.89,3.97,3.93,0,*74
1505099276.12,61250,14.69,73538.0,4.89,3.93,3.85,0,*7F
1505099277.3,61251,14.69,73536.0,4.89,3.81,3.81,0,*79
1505099278.55,61252,14.69,73536.5,4.91,3.79,3.79,0,*73
1505099279.72,61253,14.69,73536.3,4.89,3.81,3.81,0,*7B
1505099280.9,61254,14.63,73532.0,4.89,3.85,3.93,0,*7B
1505099282.12,61255,14.69,73540.5,4.91,3.89,3.97,0,*7B
1505099283.34,61256,14.69,73552.0,4.89,3.97,3.97,0,*7E
1505099284.52,61257,14.69,73538.5,4.89,3.93,3.93,0,*7F
1505099285.73,61258,14.69,73516.8,4.89,3.75,3.81,0,*7B
1505099286.9,61259,14.69,73532.8,4.89,3.85,3.81,0,*75
1505099288.1,61260,14.69,73504.5,4.91,3.85,3.85,0,*72
1505099289.33,61261,14.69,73504.8,4.89,3.71,3.71,0,*7A
1505099290.57,61262,14.69,73508.0,4.91,3.97,3.97,0,*70
1505099291.75,61263,14.63,73510.8,4.89,3.93,3.93,0,*78
1505099292.93,61264,14.69,73510.0,4.89,3.93,3.85,0,*78
1505099294.1,61265,14.69,73522.3,4.89,3.81,3.89,0,*76
1505099295.3,61266,14.69,73550.0,4.89,3.93,3.97,0,*79
1505099296.48,61267,14.69,73546.8,4.89,3.93,3.93,0,*7C
1505099297.7,61268,14.69,73538.5,4.89,3.97,3.97,0,*73
1505099298.87,61269,14.69,73524.5,4.89,3.93,3.85,0,*75
1505099300.04,61270,14.69,73532.3,4.89,3.81,3.85,0,*7E
1505099301.27,61271,14.69,73554.3,4.91,4.07,4.01,0,*74
1505099302.51,61272,14.69,73552.5,4.91,3.97,3.97,0,*71
1505099303.76,61273,14.69,73536.8,4.91,4.01,4.01,0,*70
1505099304.96,61274,14.63,73542.5,4.89,4.05,3.93,0,*76
1505099306.17,61275,14.69,73546.5,4.89,4.07,4.05,0,*7D
1505099307.4,61276,14.69,73550.8,4.89,4.05,4.05,0,*7C
1505099308.6,61277,14.69,73524.0,4.91,4.07,4.07,0,*74
1505099309.81,61278,14.69,73512.8,4.91,4.07,4.07,0,*7B
1505099311.01,61279,14.69,73510.3,4.91,3.89,3.89,0,*7A
1505099312.26,61280,14.69,73516.8,4.91,4.01,4.01,0,*7C
1505099313.48,61281,14.69,73532.3,4.89,3.97,4.05,0,*78
1505099314.68,61282,14.69,73536.8,4.91,4.11,4.11,0,*7E
1505099315.89,61283,14.69,73530.0,4.89,4.05,4.07,0,*74
1505099317.13,61284,14.69,73520.5,4.91,4.01,4.01,0,*78
1505099318.34,61285,14.69,73516.0,4.91,4.07,4.07,0,*79
1505099319.58,61286,14.69,73530.5,4.91,4.01,4.01,0,*7A
1505099320.81,61287,14.69,73534.3,4.89,4.05,3.97,0,*7E
1505099322.03,61288,14.69,73530.5,4.91,4.07,4.01,0,*72
1505099323.24,61289,14.69,73526.0,4.91,4.07,4.07,0,*75
1505099324.44,61290,14.69,73524.8,4.89,4.07,3.97,0,*7A
1505099325.64,61291,14.69,73524.3,4.91,3.89,3.85,0,*70
1505099326.82,61292,14.69,73516.5,4.89,3.93,3.93,0,*76
1505099328.06,61293,14.69,73528.5,4.91,3.97,3.97,0,*7E
1505099329.24,61294,14.69,73536.8,4.89,3.93,3.93,0,*70